Location: Iowa City
(41.6610°N, 91.5300°W)
Time: 10:32:18
(UTC-06:00)

ISS - Visible Passes

Search period start: 02 March 2015 00:00
Search period end: 12 March 2015 01:00
Orbit: 397 x 407 km, 51.6° (Epoch: 02 March)

Date Brightness Start Highest point End Pass type
(mag) Time Alt. Az. Time Alt. Az. Time Alt. Az.
09 Mar -1.8 07:01:40 10° SSW 07:04:39 36° SE 07:07:40 10° ENE visible
10 Mar -0.8 06:09:16 10° S 06:11:36 19° SE 06:13:59 10° E visible
11 Mar -3.3 06:51:19 10° SW 06:54:32 87° SSE 06:57:48 10° NE visible
